FW2068 Weather Reports


Display with metric or nautical units.
time (UTC)temp
F
wind
direction
speed
MPH
gust
MPH
rain 1hr
in
rain 24hr
in
rain mn
in
humidity
%
barometer
mb
20260505061316 71 149 10.0 16.0 0.00 0.00 0.00 81 1006.3
20260505060813 71 170 9.0 20.0 0.00 0.00 0.00 81 1006.2
20260505060310 72 142 9.0 20.0 0.00 0.00 0.00 80 1006.3
20260505055805 72 150 9.0 22.0 0.00 0.00 0.00 80 1006.1
20260505055303 71 147 12.0 17.0 0.00 0.00 0.00 80 1006.3
20260505054759 71 132 13.0 18.0 0.00 0.00 0.00 80 1006.4
20260505054257 72 167 9.0 20.0 0.00 0.00 0.00 79 1006.3
20260505053755 72 177 10.0 19.0 0.00 0.00 0.00 80 1006.1
20260505053251 72 141 13.0 16.0 0.00 0.00 0.00 79 1006.4
20260505052748 72 164 13.0 19.0 0.00 0.00 0.00 79 1006.5
20260505052245 72 175 9.0 17.0 0.00 0.00 0.00 79 1006.7
20260505051742 72 152 12.0 17.0 0.00 0.00 0.00 79 1006.4
20260505051240 72 168 12.0 21.0 0.00 0.00 0.00 78 1006.5
20260505050738 72 190 10.0 18.0 0.00 0.00 0.00 78 1006.5
20260505050236 72 154 17.0 18.0 0.00 0.00 0.00 77 1006.5
20260505041706 73 164 15.0 18.0 0.00 0.00 0.00 74 1006.7
20260505041203 73 139 15.0 18.0 0.00 0.00 0.00 74 1006.7
20260505040700 73 142 10.0 17.0 0.00 0.00 0.00 74 1006.8
20260505040157 73 166 12.0 21.0 0.00 0.00 0.00 74 1006.7
20260505035654 73 153 10.0 12.0 0.00 0.00 0.00 75 1006.7
20260505035150 73 156 9.0 17.0 0.00 0.00 0.00 74 1006.6
20260505034647 73 154 13.0 17.0 0.00 0.00 0.00 74 1006.4
20260505034144 73 135 11.0 16.0 0.00 0.00 0.00 73 1006.6
20260505033640 73 140 11.0 19.0 0.00 0.00 0.00 73 1006.6
20260505033139 73 148 10.0 15.0 0.00 0.00 0.00 73 1006.8
20260505032636 73 152 10.0 18.0 0.00 0.00 0.00 73 1006.7
20260505032132 73 193 8.0 18.0 0.00 0.00 0.00 72 1006.7
20260505031630 73 169 7.0 14.0 0.00 0.00 0.00 72 1006.8
20260505031125 74 159 9.0 19.0 0.00 0.00 0.00 72 1006.8
20260505030623 74 129 7.0 15.0 0.00 0.00 0.00 72 1006.9
20260505030119 74 156 13.0 17.0 0.00 0.00 0.00 72 1007.0
20260505025614 74 141 9.0 14.0 0.00 0.00 0.00 72 1006.8
20260505025114 74 155 10.0 15.0 0.00 0.00 0.00 72 1006.7
20260505024610 74 160 9.0 14.0 0.00 0.00 0.00 72 1006.5
20260505024108 74 150 13.0 17.0 0.00 0.00 0.00 72 1006.3
20260505023605 74 152 13.0 16.0 0.00 0.00 0.00 72 1006.2
20260505023102 74 142 12.0 16.0 0.00 0.00 0.00 71 1006.3
20260505022600 74 156 8.0 13.0 0.00 0.00 0.00 71 1006.6
20260505022056 74 146 11.0 13.0 0.00 0.00 0.00 71 1006.4
20260505021553 74 154 8.0 13.0 0.00 0.00 0.00 71 1006.4
20260505021050 74 145 11.0 16.0 0.00 0.00 0.00 70 1006.6
20260505020550 74 159 7.0 15.0 0.00 0.00 0.00 71 1006.4
20260505020047 74 164 8.0 14.0 0.00 0.00 0.00 70 1006.4
20260505015544 74 153 13.0 15.0 0.00 0.00 0.00 70 1006.5
20260505015041 75 159 9.0 15.0 0.00 0.00 0.00 69 1006.5
20260505014537 75 160 9.0 12.0 0.00 0.00 0.00 69 1006.4
20260505014035 75 145 15.0 18.0 0.00 0.00 0.00 68 1006.5
20260505013532 75 147 10.0 13.0 0.00 0.00 0.00 68 1006.4
20260505013029 75 174 7.0 11.0 0.00 0.00 0.00 68 1006.3
20260505012527 75 152 10.0 14.0 0.00 0.00 0.00 68 1006.3
20260505012024 75 149 7.0 14.0 0.00 0.00 0.00 68 1006.4
20260505011519 75 172 11.0 15.0 0.00 0.00 0.00 67 1006.6
20260505011017 76 160 9.0 15.0 0.00 0.00 0.00 67 1006.5
20260505010512 76 188 5.0 13.0 0.00 0.00 0.00 66 1006.6
20260505010009 76 149 11.0 13.0 0.00 0.00 0.00 66 1006.4
20260505005505 76 180 7.0 15.0 0.00 0.00 0.00 66 1006.3
20260505005004 77 150 11.0 15.0 0.00 0.00 0.00 65 1006.6
20260505004500 77 160 9.0 14.0 0.00 0.00 0.00 65 1006.4
20260505003956 77 139 12.0 15.0 0.00 0.00 0.00 64 1006.4
20260505003454 77 148 10.0 16.0 0.00 0.00 0.00 64 1006.3
20260505002950 77 146 14.0 22.0 0.00 0.00 0.00 63 1006.6
20260505002446 78 165 11.0 21.0 0.00 0.00 0.00 62 1006.7
20260505001945 78 146 9.0 15.0 0.00 0.00 0.00 62 1006.6
20260505001442 78 145 12.0 22.0 0.00 0.00 0.00 62 1006.6
20260505000938 78 165 6.0 14.0 0.00 0.00 0.00 62 1006.5
20260505000437 78 148 13.0 20.0 0.00 0.00 0.00 62 1006.6
20260504235933 78 165 13.0 19.0 0.00 0.00 0.00 62 1006.7
20260504235431 78 165 13.0 18.0 0.00 0.00 0.00 61 1006.7
20260504234926 78 136 15.0 20.0 0.00 0.00 0.00 61 1006.7
20260504234424 78 160 11.0 13.0 0.00 0.00 0.00 61 1006.8
20260504233920 78 164 14.0 16.0 0.00 0.00 0.00 61 1006.8
20260504233416 78 184 8.0 17.0 0.00 0.00 0.00 60 1006.7
20260504232913 79 155 14.0 17.0 0.00 0.00 0.00 60 1006.8
20260504232410 79 167 11.0 25.0 0.00 0.00 0.00 59 1006.8
20260504231907 79 167 11.0 20.0 0.00 0.00 0.00 60 1006.9
20260504231403 79 149 17.0 20.0 0.00 0.00 0.00 59 1006.8
20260504230900 80 160 17.0 21.0 0.00 0.00 0.00 59 1006.9
20260504230357 79 176 12.0 18.0 0.00 0.00 0.00 59 1007.1
20260504225856 80 154 12.0 18.0 0.00 0.00 0.00 58 1007.2
20260504225352 80 156 10.0 17.0 0.00 0.00 0.00 57 1007.1
20260504224850 81 164 12.0 15.0 0.00 0.00 0.00 57 1007.2
20260504224346 80 149 11.0 21.0 0.00 0.00 0.00 57 1007.2
20260504223843 80 178 14.0 18.0 0.00 0.00 0.00 58 1007.2
20260504223338 80 173 9.0 20.0 0.00 0.00 0.00 58 1007.0
20260504222835 80 155 13.0 20.0 0.00 0.00 0.00 58 1007.2
20260504222332 80 192 13.0 18.0 0.00 0.00 0.00 57 1007.2
20260504221831 80 163 14.0 19.0 0.00 0.00 0.00 57 1007.2
20260504221327 80 213 10.0 18.0 0.00 0.00 0.00 57 1007.3
20260504220824 80 154 12.0 18.0 0.00 0.00 0.00 57 1007.6
20260504220321 80 150 12.0 21.0 0.00 0.00 0.00 56 1007.8
20260504215818 80 158 11.0 23.0 0.00 0.00 0.00 57 1007.7
20260504215314 80 161 13.0 21.0 0.00 0.00 0.00 57 1007.7
20260504214811 80 190 12.0 21.0 0.00 0.00 0.00 56 1007.7
20260504214308 80 154 15.0 26.0 0.00 0.00 0.00 56 1008.0
20260504213804 80 158 12.0 26.0 0.00 0.00 0.00 56 1008.2
20260504213300 81 152 14.0 22.0 0.00 0.00 0.00 55 1007.8
20260504212758 81 172 9.0 20.0 0.00 0.00 0.00 55 1008.1
20260504212254 80 160 15.0 26.0 0.00 0.00 0.00 55 1008.1
20260504211752 80 163 13.0 26.0 0.00 0.00 0.00 55 1008.2
20260504211247 80 155 12.0 23.0 0.00 0.00 0.00 56 1008.4
20260504210745 80 173 15.0 25.0 0.00 0.00 0.00 54 1008.4
20260504210242 80 180 13.0 22.0 0.00 0.00 0.00 55 1008.5
20260504205739 80 145 17.0 22.0 0.00 0.00 0.00 55 1008.8
20260504205237 80 176 8.0 17.0 0.00 0.00 0.00 54 1008.6
20260504204735 80 160 17.0 26.0 0.00 0.00 0.00 53 1008.7
20260504204233 81 152 14.0 21.0 0.00 0.00 0.00 54 1008.8
20260504203732 80 185 11.0 19.0 0.00 0.00 0.00 53 1008.9
20260504203229 80 141 16.0 21.0 0.00 0.00 0.00 53 1009.1
20260504202729 80 148 12.0 18.0 0.00 0.00 0.00 52 1009.2
20260504202226 80 163 11.0 18.0 0.00 0.00 0.00 55 1009.5
20260504201723 79 160 13.0 20.0 0.00 0.00 0.00 53 1009.6
20260504201220 80 172 14.0 23.0 0.00 0.00 0.00 53 1009.6
20260504200718 79 145 13.0 27.0 0.00 0.00 0.00 53 1009.7
20260504200214 79 177 9.0 19.0 0.00 0.00 0.00 53 1009.8
20260504195711 81 178 19.0 26.0 0.00 0.00 0.00 50 1009.9
20260504195206 80 151 12.0 16.0 0.00 0.00 0.00 52 1009.8
20260504194704 80 154 16.0 27.0 0.00 0.00 0.00 51 1010.1
20260504194200 80 180 9.0 17.0 0.00 0.00 0.00 51 1010.1
20260504193656 80 156 10.0 23.0 0.00 0.00 0.00 52 1010.2
20260504193154 79 173 15.0 21.0 0.00 0.00 0.00 52 1010.2
20260504192652 79 146 10.0 22.0 0.00 0.00 0.00 52 1010.5
20260504192150 79 153 12.0 19.0 0.00 0.00 0.00 52 1010.3
20260504191648 79 191 13.0 19.0 0.00 0.00 0.00 50 1010.7
20260504191144 79 202 9.0 20.0 0.00 0.00 0.00 50 1010.7
20260504190640 79 151 17.0 20.0 0.00 0.00 0.00 51 1010.7
20260504190137 79 168 14.0 21.0 0.00 0.00 0.00 50 1010.5
20260504185633 79 170 6.0 18.0 0.00 0.00 0.00 51 1010.7
20260504185130 78 150 7.0 23.0 0.00 0.00 0.00 51 1010.8
20260504184626 79 162 9.0 17.0 0.00 0.00 0.00 50 1010.9
20260504184121 78 150 13.0 22.0 0.00 0.00 0.00 48 1011.1
20260504183618 78 166 11.0 21.0 0.00 0.00 0.00 49 1011.0
20260504183116 78 155 13.0 25.0 0.00 0.00 0.00 48 1011.2
20260504182614 78 194 18.0 20.0 0.00 0.00 0.00 47 1011.4
20260504182111 78 167 13.0 17.0 0.00 0.00 0.00 47 1011.3
20260504181608 78 176 6.0 15.0 0.00 0.00 0.00 46 1011.3
20260504181105 78 127 10.0 24.0 0.00 0.00 0.00 48 1011.3
20260504180604 77 155 18.0 23.0 0.00 0.00 0.00 46 1011.4
20260504180103 78 164 18.0 18.0 0.00 0.00 0.00 47 1011.5
20260504175600 77 142 18.0 23.0 0.00 0.00 0.00 47 1011.8
20260504175056 77 140 17.0 20.0 0.00 0.00 0.00 49 1011.8
20260504174555 77 187 12.0 23.0 0.00 0.00 0.00 49 1011.7
20260504174051 77 152 12.0 17.0 0.00 0.00 0.00 49 1011.9
20260504173548 77 174 11.0 22.0 0.00 0.00 0.00 49 1012.0
20260504173045 76 178 8.0 27.0 0.00 0.00 0.00 51 1011.9
20260504172541 76 139 15.0 21.0 0.00 0.00 0.00 52 1012.0
20260504172038 75 150 15.0 24.0 0.00 0.00 0.00 51 1012.2
20260504171535 76 181 12.0 23.0 0.00 0.00 0.00 49 1012.4
20260504171032 75 124 15.0 22.0 0.00 0.00 0.00 52 1012.2
20260504170527 75 206 8.0 22.0 0.00 0.00 0.00 52 1012.4
20260504150912 70 168 11.0 20.0 0.00 0.00 0.00 64 1013.4
20260504150408 69 178 9.0 20.0 0.00 0.00 0.00 65 1013.3
20260504140835 66 154 12.0 19.0 0.00 0.00 0.00 72 1014.1
20260504140330 65 145 9.0 16.0 0.00 0.00 0.00 73 1014.1
20260504130759 62 153 8.0 12.0 0.00 0.00 0.00 78 1013.9
20260504130255 62 153 6.0 13.0 0.00 0.00 0.00 79 1014.0
20260504120219 59 158 7.0 9.0 0.00 0.00 0.00 82 1013.6
20260504110646 58 128 8.0 10.0 0.00 0.00 0.00 82 1013.5
20260504110143 58 126 6.0 9.0 0.00 0.00 0.00 82 1013.3
20260504100609 60 157 6.0 11.0 0.00 0.00 0.00 77 1013.6
20260504100107 60 163 6.0 9.0 0.00 0.00 0.00 77 1013.6
20260504082002 62 164 8.0 13.0 0.00 0.00 0.00 68 1014.0
20260504081500 62 167 9.0 12.0 0.00 0.00 0.00 67 1014.0
20260504080955 62 154 6.0 13.0 0.00 0.00 0.00 67 1014.1
20260504080452 62 155 7.0 14.0 0.00 0.00 0.00 67 1014.1